Weather in Kazym-Mys

Russia / Yamalo-Nenets Autonomous Okrug     64°40′11″N   65°38′16″E
temp.,
°C
wind,
m/s
gust,
m/s
humid.,
%
clouds,
%
prec.,
mm/h
press.,
hPa
HPBL,
m
27 february, sat
sat2723:00−22s249792 0.0 102385
02:00−23s339880 0.0 102373
05:00−23s339968 0.0 102379
08:00−25s359860 0.0 102389
11:00−22s369659 0.0 1023187
14:00−20s369623 0.0 1023223
17:00−22s369514 0.0 1023138
20:00−24s36960 0.0 1022108
28 february, sun
sun2823:00−24s36970 0.0 1023113
02:00−26s369963 0.0 1022105
05:00−27s369857 0.0 1022125
08:00−28s38970 0.0 1022156
11:00−25s47950 0.0 1022246
14:00−24s47940 0.0 1021248
17:00−24s389216 0.0 1021197
20:00−26s239739 0.0 102043
1 march, mon
mon123:00−26s239958 0.0 102145
02:00−27s369850 0.0 102098
05:00−28s379646 0.0 1020136
08:00−28s389630 0.0 1019165
11:00−25s489415 0.0 1018246
14:00−23s510940 0.0 1016259
17:00−21s613900 0.0 1015338
20:00−21s614910 0.0 1013347
2 march, tue
tue223:00−21s7149530 0.0 1011356
02:00−20s71593100 0.0 1009389
05:00−21s71691100 0.0 1007392
08:00−21s81692100 0.0 1005406
11:00−19s81692100 0.0 1005434
14:00−16s81589100 0.0 1004502
17:00−14s71588100 0.0 1004585
20:00−14s71589100 0.0 1003598
3 march, wed
wed323:00−15s71491100 0.1 1003595
02:00−15s61392100 0.3 1002535
05:00−16s61294100 0.7 1002503
08:00−16s61195100 0.6 1002489
11:00−15s61194100 1.1 1002527
14:00−13s61093100 0.4 1002580
17:00−13s51093100 0.8 1002617
20:00−14s51193100 0.3 1002573